Wetbulb
57.68 57.31 56.85 56.04 55.67 53.36 50.03 56.57 50.01 57.32 58.84 49.48 50.53 47.35 49.28 47.56 48.49 49.73 48.50 48.51 47.79 46.49 46.79 45.16 46.01 45.74 46.59 48.36 46.94 43.70 46.60 45.74 42.17 41.61 41.41 41.91 42.14 42.55 43.49 40.71 39.76 40.64 39.65 40.08
57.35 56.80 56.37 55.57 54.62 51.17 56.47 52.95 52.33 56.53 56.02 45.60 47.34 49.33 48.41 48.20 48.27 48.47 47.98 47.34 48.89 48.66 46.78 44.76 46.82 47.01 46.07 47.52 46.88 45.76 46.13 44.12 41.11 39.75 40.50 41.22 40.10 42.45 42.90 42.89 42.53 38.94 38.62 43.33
57.06 56.33 55.76 55.12 54.49 52.09 52.44 52.73 47.36 52.07 51.88 52.71 49.25 47.76 46.87 46.00 49.87 49.34 49.70 48.99 49.38 47.22 46.52 47.77 46.24 46.23 45.52 46.56 47.73 48.06 48.57 45.98 44.13 41.83 42.68 44.43 40.04 41.21 41.49 42.46 39.87 40.61 41.72 43.74
56.97 56.20 55.60 55.03 54.57 52.79 50.05 52.52 48.83 52.04 45.93 47.54 48.84 49.66 48.04 45.99 45.45 48.71 49.76 47.78 48.02 47.33 45.44 45.69 45.33 47.71 44.64 45.14 47.26 46.38 47.31 43.13 45.03 45.15 44.83 43.50 43.40 43.24 42.01 39.59 42.41 40.54 43.54 44.11
57.03 56.19 55.43 54.78 54.05 51.78 49.02 50.77 49.45 51.62 51.27 50.09 48.17 46.46 46.69 46.27 47.24 47.25 46.37 46.46 48.24 48.84 47.07 47.57 46.16 47.47 47.10 46.45 46.09 45.59 46.64 43.56 43.20 42.18 44.12 43.20 41.17 43.28 43.66 43.43 42.31 42.25 43.36 43.48
56.97 56.01 54.96 54.14 53.04 50.16 49.64 55.65 54.02 52.12 48.39 49.48 47.24 47.66 46.62 46.97 48.78 48.91 49.66 48.88 48.56 47.51 48.97 50.87 50.39 51.68 50.64 50.50 47.34 45.53 45.34 44.44 42.31 40.61 41.67 40.93 38.66 43.58 44.17 43.76 45.49 44.82 41.36 46.62
56.94 56.18 55.22 54.28 52.57 49.71 54.05 54.71 53.73 49.98 46.40 48.75 48.06 48.47 48.75 48.04 48.38 47.90 49.09 49.89 48.59 50.48 52.98 51.43 50.88 49.95 48.94 49.41 48.97 49.64 45.38 44.92 44.39 40.58 40.73 34.54 46.21 46.34 45.27 44.77 46.06 47.11 46.05 47.28
56.88 56.31 55.69 54.95 53.03 50.35 51.07 54.85 52.94 51.16 47.82 48.80 49.34 49.83 49.65 49.92 50.23 48.76 48.96 49.71 51.66 52.85 50.84 47.22 44.37 44.32 44.70 45.85 47.48 46.39 48.25 45.90 43.31 39.31 38.79 43.65 44.90 47.73 43.15 42.46 46.11 49.32 47.40 49.03
56.79 56.11 55.54 54.96 53.52 51.37 49.92 51.98 55.58 52.14 48.04 47.15 51.09 48.93 50.21 48.26 48.14 48.01 48.87 48.72 52.06 51.98 49.60 47.59 41.96 40.61 43.64 41.36 40.73 43.30 45.21 45.70 44.32 40.80 36.29 36.17 46.29 45.69 47.55 47.53 41.81 51.32 50.98 49.96
56.99 56.46 55.85 55.26 53.84 52.17 49.81 48.68 54.02 52.39 48.15 49.78 50.59 48.98 48.33 51.98 50.46 48.68 49.21 46.67 46.73 50.48 48.76 45.01 43.29 43.02 47.01 41.43 40.66 37.30 39.10 41.19 39.24 40.30 39.55 43.30 49.18 46.88 47.97 41.57 46.25 51.45 50.37 50.48
57.16 56.75 56.22 55.46 54.42 53.07 50.39 48.13 51.44 53.26 50.94 48.95 49.57 51.07 49.32 50.57 51.47 47.44 48.98 46.60 47.17 46.39 45.94 45.07 44.94 44.11 44.82 44.50 46.57 41.94 40.28 39.28 38.06 40.43 39.20 36.82 50.91 45.37 43.99 50.58 52.63 51.79 50.75 51.29
55.81 55.80 56.48 55.78 55.08 53.59 51.47 47.35 49.83 51.17 49.54 48.75 49.88 50.51 51.30 52.25 52.73 51.50 48.90 50.33 48.28 49.33 46.95 48.06 48.58 44.86 46.65 45.09 42.20 47.18 42.26 46.77 44.86 45.01 44.77 49.73 48.79 51.10 50.50 51.93 52.45 52.69 51.24 51.73
55.58 55.36 55.78 56.08 55.32 53.77 51.59 50.88 49.48 47.74 44.53 45.79 45.65 44.65 49.25 51.47 51.28 53.16 48.41 50.43 52.33 51.26 53.35 50.87 50.81 46.07 48.41 43.42 44.76 47.23 46.06 50.18 46.34 47.81 49.65 49.47 48.72 50.61 51.97 52.20 50.99 52.40 52.29 51.49
55.56 54.92 55.76 56.12 55.25 53.85 51.87 49.65 50.63 48.57 47.34 42.34 43.94 48.41 46.82 51.12 51.65 51.67 50.99 49.35 49.98 51.54 51.61 50.97 49.29 46.30 50.79 47.50 49.09 48.54 50.44 49.91 45.88 46.09 49.10 50.38 50.12 50.19 51.24 51.91 52.57 51.56 51.41 51.29
55.32 54.92 55.21 55.28 55.32 53.92 51.65 47.05 46.94 47.82 45.36 39.14 43.92 45.80 46.79 47.31 49.29 49.77 50.47 48.99 48.70 48.15 46.93 46.54 45.66 48.86 48.69 48.39 47.19 45.93 51.26 48.50 45.27 45.50 51.22 50.62 51.92 54.10 54.08 52.15 51.52 51.70 51.62 52.32
54.87 54.68 54.65 54.18 54.35 50.50 48.18 41.85 45.65 48.08 48.98 41.94 38.24 43.39 42.99 43.66 44.61 46.71 47.96 49.00 46.49 46.93 45.46 43.62 46.76 48.99 44.36 41.92 43.50 49.59 51.42 52.23 51.66 49.38 52.01 51.70 52.16 52.96 53.43 52.61 52.93 53.57 53.39 53.72
52.97 54.28 54.05 53.55 51.66 50.94 45.95 43.34 50.03 49.33 49.16 39.38 33.93 36.69 41.89 42.33 42.08 42.42 43.10 45.41 44.50 45.05 43.50 41.86 42.90 42.66 42.61 37.63 38.75 47.86 51.11 52.09 52.36 52.83 51.97 49.68 51.16 50.04 52.80 53.66 54.21 54.43 54.37 53.94
52.52 53.86 53.59 52.84 51.65 49.59 47.14 49.27 48.90 49.89 42.97 40.97 32.35 33.24 39.06 43.88 39.00 38.39 43.70 40.67 41.72 41.07 41.30 41.60 41.31 42.85 41.64 35.55 43.55 46.31 47.98 48.93 49.35 50.36 52.06 52.24 52.95 53.00 52.78 53.70 53.15 52.11 51.27 51.74
52.19 50.56 49.66 49.60 43.30 42.46 45.11 49.33 49.09 45.90 42.73 32.78 32.09 34.56 35.23 43.89 41.19 41.80 41.58 42.40 35.19 41.24 37.22 38.47 40.29 37.94 34.31 40.91 43.81 45.59 47.29 47.34 48.16 50.41 50.94 50.94 50.38 50.49 50.93 50.99 51.03 50.15 50.33 51.08
49.93 46.12 40.04 34.99 39.51 48.66 47.54 40.38 35.19 33.94 33.22 34.96 36.85 43.12 36.18 40.75 39.07 38.09 37.94 38.89 35.58 31.45 34.97 40.86 36.67 36.04 42.65 46.11 47.01 47.37 48.38 49.49 49.99 47.50 47.29 48.66 48.80 49.42 49.48 49.55 50.16 50.16 50.06 50.17
42.27 33.54 32.67 37.28 43.60 40.28 34.91 31.77 32.08 31.59 30.85 32.13 39.99 42.12 35.90 40.84 36.73 35.99 39.69 33.55 33.81 31.57 36.13 35.45 33.44 35.05 42.01 46.77 47.36 48.48 49.13 49.78 50.09 50.24 50.57 50.42 49.72 49.07 48.75 48.53 48.93 49.00 48.85 48.52
40.94 38.98 40.79 39.32 33.69 31.75 31.10 31.14 31.22 31.88 31.60 35.15 36.24 39.47 40.70 38.97 42.69 37.89 34.62 32.80 32.55 31.55 37.98 33.62 32.50 39.32 44.46 46.37 47.50 48.67 49.44 49.26 48.91 49.47 48.77 48.96 48.90 48.89 48.26 47.87 47.36 47.56 48.14 48.38
41.60 35.69 32.60 32.29 31.19 28.92 28.19 25.56 29.07 31.04 34.79 35.41 34.98 33.61 35.08 35.84 39.52 36.25 33.09 31.51 31.83 36.17 31.86 32.32 36.23 43.82 43.05 44.42 44.87 45.95 47.41 46.91 45.79 45.27 45.73 45.71 45.33 45.21 44.40 43.70 44.49 44.62 44.31 45.19
33.89 32.60 28.47 31.33 27.68 29.94 31.33 31.95 33.80 34.99 36.89 35.79 37.70 34.94 35.46 35.18 33.67 32.65 31.53 33.02 33.14 30.17 29.17 30.75 39.52 42.69 43.08 43.87 44.72 44.09 43.32 42.49 41.68 41.57 41.79 41.64 41.88 42.23 42.81 42.97 43.38 42.91 42.20 43.28
32.58 31.95 29.84 30.21 35.17 34.68 36.28 35.19 33.67 35.02 38.06 38.44 35.96 35.50 35.82 32.94 32.22 32.44 32.20 29.92 29.26 30.89 31.54 37.96 40.68 40.76 41.42 41.30 41.06 40.97 40.74 40.77 40.91 41.34 41.12 41.28 41.61 41.65 41.83 43.14 43.64 43.37 42.76 42.43
33.52 32.07 32.15 34.04 32.88 31.71 32.65 34.13 33.81 38.05 39.11 39.72 38.79 33.29 31.91 32.00 32.82 30.59 30.37 29.60 28.51 34.17 37.59 40.70 41.03 40.57 40.14 40.19 40.08 40.36 40.42 40.82 41.13 41.61 41.57 41.50 41.72 41.81 41.95 42.40 42.46 42.71 42.84 42.17
32.85 32.22 36.34 36.00 36.26 35.84 34.65 35.19 34.53 39.33 37.94 34.25 33.67 30.95 31.06 34.01 30.94 29.98 34.15 32.18 36.96 39.38 40.23 41.19 40.61 40.54 40.48 40.52 40.65 40.67 40.81 40.95 41.57 41.83 42.14 42.00 42.34 42.55 41.70 40.89 42.62 43.58 43.34 42.80
MSLP
1015.73 1016.35 1017.06 1017.58 1018.01 1018.63 1019.05 1016.71 1015.70 1016.53 1016.75 1016.05 1014.58 1013.21 1012.68 1013.36 1013.23 1013.51 1013.17 1012.83 1012.39 1012.27 1012.56 1012.89 1013.16 1013.63 1014.69 1015.55 1016.13 1016.32 1016.36 1016.26 1016.87 1017.84 1018.92 1019.14 1018.65 1017.82 1017.32 1016.80 1016.30 1015.62 1014.41 1011.57
1014.73 1015.66 1016.36 1017.08 1017.50 1017.78 1016.65 1015.61 1015.60 1016.66 1016.15 1014.27 1013.06 1013.14 1013.16 1013.43 1013.28 1013.08 1013.00 1012.70 1012.54 1012.46 1012.47 1012.87 1013.29 1014.19 1015.97 1016.34 1016.45 1016.48 1016.66 1016.36 1016.30 1017.49 1018.69 1018.94 1018.39 1017.71 1017.49 1017.28 1017.05 1015.85 1014.48 1011.15
1013.81 1014.85 1015.65 1016.42 1017.02 1017.15 1017.89 1014.92 1014.95 1015.73 1015.75 1013.36 1012.67 1012.61 1012.76 1013.03 1013.13 1012.77 1012.74 1012.35 1012.57 1012.60 1012.42 1012.85 1013.32 1014.45 1016.22 1016.84 1016.85 1017.22 1016.89 1015.99 1015.36 1015.48 1016.18 1016.75 1017.33 1017.29 1017.39 1016.98 1016.34 1015.20 1013.33 1011.09
1013.04 1013.83 1014.93 1015.61 1016.46 1017.16 1017.73 1014.62 1012.28 1012.33 1012.95 1012.86 1012.57 1011.68 1011.81 1011.97 1012.39 1012.93 1012.71 1012.51 1012.22 1012.00 1011.96 1012.57 1013.05 1013.84 1015.98 1016.98 1017.39 1017.27 1016.73 1015.84 1015.32 1015.27 1015.72 1016.18 1016.07 1016.18 1016.52 1016.34 1015.57 1014.90 1012.16 1011.82
1011.97 1012.86 1013.75 1014.81 1015.78 1016.95 1017.07 1013.31 1012.43 1012.55 1011.48 1011.91 1012.21 1011.52 1010.95 1011.01 1011.15 1011.69 1011.73 1011.69 1011.78 1011.79 1011.53 1011.72 1012.04 1013.21 1014.18 1014.90 1016.81 1016.82 1016.68 1015.96 1015.85 1015.38 1015.60 1015.91 1015.38 1015.21 1015.09 1014.94 1014.86 1014.16 1013.13 1011.70
1010.89 1011.98 1012.93 1013.91 1014.78 1015.60 1014.50 1013.18 1012.62 1011.66 1011.35 1010.82 1011.07 1010.28 1010.25 1010.02 1010.47 1011.07 1010.73 1011.12 1011.37 1011.49 1011.27 1011.64 1012.50 1012.62 1013.34 1013.69 1014.98 1015.81 1016.18 1016.00 1016.04 1015.25 1015.77 1015.93 1015.18 1012.95 1013.21 1013.33 1012.90 1012.76 1012.44 1010.65
1009.83 1010.84 1011.91 1012.82 1013.54 1013.82 1012.82 1012.47 1012.18 1011.50 1010.64 1010.28 1009.63 1009.71 1009.98 1010.02 1009.95 1010.05 1010.89 1011.41 1011.21 1011.88 1012.06 1012.88 1013.27 1013.61 1013.91 1014.18 1014.72 1015.10 1015.53 1015.90 1016.28 1015.90 1015.97 1014.69 1012.30 1012.61 1012.65 1012.59 1011.99 1011.73 1011.13 1010.48
1008.55 1009.84 1010.77 1011.70 1012.66 1013.07 1013.43 1012.60 1012.19 1011.14 1009.88 1010.09 1009.68 1009.41 1009.58 1009.92 1010.64 1010.88 1011.14 1011.53 1011.49 1012.03 1012.42 1012.92 1013.36 1013.75 1014.15 1014.19 1014.76 1015.58 1015.56 1015.97 1016.55 1016.21 1015.15 1013.09 1012.54 1011.46 1012.16 1011.83 1010.28 1009.86 1009.97 1009.89
1007.37 1008.49 1009.61 1010.66 1011.78 1012.20 1013.46 1012.57 1012.35 1011.77 1010.54 1009.53 1009.33 1009.74 1009.65 1009.52 1010.16 1011.28 1011.85 1012.95 1012.71 1012.50 1012.56 1012.54 1012.27 1012.26 1012.36 1013.60 1015.23 1016.44 1016.31 1016.32 1016.14 1016.15 1014.95 1012.81 1011.13 1011.55 1011.59 1011.42 1009.67 1008.13 1008.41 1008.84
1006.33 1007.46 1008.53 1009.70 1010.58 1011.77 1012.68 1012.03 1012.46 1011.98 1010.85 1009.62 1009.45 1008.96 1009.33 1009.29 1009.73 1010.24 1011.46 1012.74 1013.28 1013.25 1012.56 1012.32 1011.85 1011.18 1011.28 1012.09 1013.17 1015.03 1015.90 1016.13 1015.52 1015.40 1013.98 1011.57 1010.78 1011.36 1011.64 1010.72 1008.33 1007.66 1008.04 1008.39
1005.46 1006.53 1007.68 1008.57 1009.77 1010.85 1011.87 1011.46 1011.97 1011.53 1010.96 1010.22 1010.43 1009.69 1009.43 1009.48 1009.41 1009.90 1011.03 1012.56 1012.68 1012.92 1012.38 1011.73 1011.06 1010.67 1010.71 1010.74 1010.74 1012.25 1012.89 1013.90 1014.14 1014.24 1012.99 1010.73 1009.78 1011.29 1010.34 1007.93 1007.73 1007.85 1008.09 1008.22
1005.36 1006.10 1006.56 1007.31 1008.49 1009.79 1011.22 1011.27 1011.44 1012.01 1011.47 1010.92 1010.92 1010.75 1010.42 1010.10 1009.98 1010.02 1010.85 1009.82 1010.46 1010.88 1011.21 1010.77 1010.26 1010.23 1009.72 1009.73 1009.47 1010.69 1010.71 1009.89 1010.47 1010.74 1009.19 1008.86 1008.57 1007.83 1007.90 1007.90 1007.81 1007.74 1008.11 1008.36
1004.90 1005.41 1005.86 1006.04 1006.83 1008.36 1009.39 1010.31 1011.04 1011.78 1011.71 1011.19 1011.14 1010.34 1010.30 1010.80 1010.86 1010.49 1010.53 1010.30 1009.96 1009.94 1009.88 1010.16 1010.16 1009.61 1009.06 1008.81 1008.32 1008.64 1008.98 1008.77 1008.61 1008.71 1007.61 1008.09 1008.34 1008.20 1007.95 1007.86 1007.74 1007.69 1008.00 1008.17
1004.54 1004.72 1004.45 1004.60 1005.69 1006.80 1008.52 1009.41 1010.33 1010.54 1011.31 1011.37 1009.82 1009.89 1010.29 1010.45 1010.61 1010.87 1010.81 1010.83 1010.80 1010.99 1011.20 1011.24 1010.74 1009.88 1008.90 1008.30 1007.82 1007.31 1007.05 1007.41 1007.79 1006.97 1007.07 1007.18 1007.59 1007.84 1007.85 1007.53 1007.43 1007.61 1007.74 1007.75
1003.51 1003.93 1004.24 1004.61 1005.07 1006.12 1007.77 1009.43 1010.08 1010.29 1010.61 1010.71 1010.93 1011.08 1010.71 1010.83 1010.82 1010.97 1011.36 1011.38 1011.48 1011.79 1012.27 1011.90 1011.01 1009.99 1009.75 1009.32 1008.99 1006.37 1006.76 1006.46 1006.72 1005.18 1006.19 1006.14 1006.00 1006.13 1006.32 1006.59 1006.89 1007.03 1007.00 1006.81
1002.97 1003.61 1004.14 1004.58 1004.53 1006.34 1007.80 1009.70 1010.44 1010.19 1010.48 1011.36 1012.05 1012.02 1011.74 1011.74 1011.62 1011.58 1011.60 1011.71 1012.28 1012.57 1012.64 1012.40 1011.31 1010.79 1010.88 1010.29 1007.97 1006.09 1006.67 1006.57 1006.41 1005.75 1006.58 1006.27 1006.26 1006.45 1006.29 1006.17 1006.28 1006.32 1006.37 1006.42
1002.61 1002.89 1004.02 1004.47 1005.28 1006.07 1007.01 1008.05 1008.05 1009.49 1010.41 1011.43 1012.46 1012.33 1012.19 1012.13 1012.15 1012.52 1012.74 1012.82 1013.11 1013.40 1013.46 1013.04 1012.48 1012.41 1012.18 1011.44 1008.73 1006.62 1006.33 1006.39 1006.17 1006.16 1006.41 1006.01 1006.12 1005.98 1006.11 1006.09 1005.82 1005.70 1005.65 1005.66
1002.44 1002.44 1003.63 1004.20 1005.22 1006.28 1007.43 1007.74 1007.90 1008.97 1010.61 1011.41 1012.26 1012.40 1012.49 1012.11 1012.20 1012.82 1013.11 1013.51 1013.73 1013.99 1013.82 1013.64 1013.23 1013.05 1012.75 1011.47 1006.62 1007.95 1007.65 1007.41 1006.41 1006.20 1006.37 1005.84 1005.80 1005.90 1005.54 1005.51 1005.47 1005.02 1004.86 1004.89
1002.69 1003.17 1003.04 1004.15 1005.34 1006.14 1006.64 1007.09 1008.30 1009.02 1010.08 1011.06 1011.29 1010.91 1011.06 1011.34 1011.67 1012.37 1013.18 1013.51 1014.09 1014.17 1013.86 1013.68 1013.72 1012.48 1011.13 1008.29 1007.45 1006.68 1006.26 1006.25 1004.90 1005.65 1005.66 1005.52 1005.23 1005.04 1005.01 1004.96 1004.73 1004.49 1004.34 1004.44
1002.78 1003.54 1004.58 1005.86 1005.97 1006.19 1006.82 1008.44 1009.02 1009.63 1009.86 1009.92 1009.50 1009.16 1010.14 1010.49 1011.44 1012.10 1012.97 1013.44 1013.68 1013.88 1013.54 1013.21 1012.27 1010.59 1008.40 1007.05 1006.19 1005.29 1004.90 1005.27 1005.46 1005.16 1004.49 1004.59 1004.14 1004.36 1004.32 1004.18 1004.17 1004.05 1003.94 1003.99
1003.24 1004.72 1006.26 1007.09 1006.84 1006.85 1007.76 1008.34 1008.94 1009.32 1009.47 1009.17 1008.24 1008.02 1009.04 1010.37 1010.12 1011.17 1012.14 1012.75 1013.14 1013.07 1012.48 1012.16 1010.88 1008.48 1004.65 1004.33 1004.33 1004.35 1004.30 1004.69 1004.56 1004.48 1003.93 1003.98 1003.97 1003.91 1003.96 1004.07 1004.15 1004.09 1003.91 1003.80
1003.67 1004.58 1006.27 1006.90 1007.04 1007.43 1007.61 1008.19 1008.33 1007.98 1007.81 1007.64 1007.25 1007.57 1008.20 1009.81 1010.11 1010.56 1011.73 1012.09 1012.44 1011.97 1011.70 1011.19 1008.91 1004.18 1003.18 1003.20 1003.11 1002.95 1003.18 1003.59 1003.67 1003.67 1003.56 1003.68 1003.69 1003.75 1003.83 1003.84 1003.93 1003.91 1003.73 1003.78
1003.90 1005.22 1006.41 1006.35 1007.16 1006.78 1006.95 1006.84 1007.14 1006.85 1006.36 1006.49 1007.08 1007.96 1008.94 1010.12 1010.12 1010.32 1011.05 1011.31 1011.39 1011.15 1010.52 1008.97 1005.76 1003.20 1003.12 1002.78 1002.95 1003.15 1003.41 1003.48 1003.78 1003.94 1003.98 1004.10 1004.27 1004.42 1004.36 1004.11 1004.01 1003.80 1003.61 1003.41
1004.35 1005.46 1005.95 1005.33 1005.83 1005.41 1005.15 1004.87 1004.84 1005.25 1005.45 1006.26 1006.70 1007.93 1008.69 1009.32 1009.74 1009.96 1010.13 1010.25 1010.28 1009.62 1008.09 1005.73 1003.29 1002.80 1002.89 1003.03 1003.09 1003.24 1003.69 1004.29 1004.52 1004.53 1004.43 1004.49 1004.61 1004.59 1004.56 1004.31 1003.97 1003.76 1003.49 1003.13
1004.82 1004.69 1004.56 1004.52 1004.00 1004.03 1004.20 1004.62 1005.23 1005.69 1005.93 1005.90 1007.33 1008.19 1008.59 1008.79 1009.19 1009.11 1008.84 1009.03 1008.36 1007.07 1004.98 1003.28 1002.91 1002.98 1003.05 1003.13 1003.44 1003.64 1003.94 1004.43 1004.69 1004.74 1004.87 1004.90 1004.79 1004.61 1004.34 1004.20 1003.97 1003.59 1003.48 1003.36
1004.62 1004.99 1004.46 1004.05 1003.77 1004.07 1004.49 1004.70 1004.77 1005.04 1005.16 1005.65 1006.86 1007.91 1008.27 1008.24 1008.14 1008.01 1007.17 1006.79 1005.62 1003.99 1003.18 1002.81 1002.74 1002.97 1003.42 1003.66 1003.88 1003.95 1004.17 1004.49 1004.69 1004.67 1004.61 1004.65 1004.62 1004.46 1004.39 1004.25 1004.10 1003.71 1003.38 1003.12
1004.60 1004.32 1003.92 1003.24 1002.97 1002.87 1003.49 1003.74 1004.18 1004.64 1005.35 1005.85 1006.75 1007.18 1007.33 1007.61 1007.19 1006.69 1005.75 1004.49 1003.35 1003.23 1003.02 1002.69 1002.92 1003.18 1003.61 1003.83 1004.08 1004.05 1004.27 1004.48 1004.40 1004.38 1004.41 1004.41 1004.45 1004.33 1004.32 1003.96 1003.61 1003.33 1003.38 1002.92
Wind_Speed
20 19 17 16 15 10 4 7 6 7 8 10 11 14 13 2 9 9 6 4 4 10 10 11 10 7 2 6 10 7 3 3 3 2 2 3 4 4 6 3 3 2 4 8
23 21 19 18 17 20 6 6 4 4 9 11 13 7 7 3 8 11 9 9 8 4 9 7 9 6 2 6 8 7 7 5 3 5 4 2 5 6 8 1 2 7 4 4
24 22 21 19 19 19 4 6 7 6 8 11 13 18 14 13 10 7 7 5 7 8 8 5 8 8 3 5 6 1 4 4 8 6 4 2 5 8 10 11 6 7 14 21
26 25 23 22 20 15 4 5 6 11 12 17 14 17 11 18 11 8 12 8 13 12 8 10 7 9 6 4 5 5 5 7 9 10 7 9 12 12 14 17 18 13 21 19
27 26 26 24 21 17 6 4 5 3 7 20 22 14 16 18 20 14 11 14 15 14 11 10 9 12 9 6 9 8 5 3 2 9 9 10 17 17 17 19 21 22 24 27
29 29 27 26 25 19 7 5 2 4 7 16 17 19 19 20 17 14 11 17 11 17 16 3 3 5 2 5 10 13 8 5 4 3 1 3 11 18 18 12 14 17 18 17
30 30 29 29 30 26 5 3 4 5 5 13 17 19 24 17 22 10 15 8 17 4 10 11 5 4 2 6 7 9 8 10 4 4 1 7 1 2 2 9 13 16 18 18
32 31 30 30 31 31 7 3 4 4 4 12 13 16 13 19 13 14 9 11 1 13 13 5 6 5 4 9 10 8 8 9 4 5 9 12 14 6 8 9 11 14 20 17
32 32 32 31 32 29 13 5 3 3 4 9 13 14 12 12 14 12 6 3 6 12 5 6 10 9 8 8 6 4 8 8 8 7 6 7 5 5 4 5 11 16 10 11
30 31 31 32 31 30 14 6 8 3 4 4 13 14 14 10 13 8 11 9 7 6 5 5 7 9 4 9 10 9 7 7 13 12 10 9 8 11 7 6 7 9 11 9
20 31 31 32 32 30 20 10 10 5 3 3 8 7 7 9 11 9 10 8 5 5 9 7 6 7 10 8 7 10 12 12 8 9 8 13 15 11 11 8 2 8 10 9
18 16 31 34 34 31 26 9 9 8 5 3 2 6 5 3 4 6 13 5 14 9 8 8 6 6 6 10 9 11 9 12 8 13 9 2 21 12 18 2 7 8 9 9
19 18 18 34 35 34 29 11 8 7 7 6 6 8 8 7 5 3 6 5 6 6 2 5 4 7 8 10 13 12 13 12 9 11 13 15 15 18 14 12 15 15 11 12
19 13 2 32 34 35 31 10 6 7 4 5 5 2 6 3 9 5 2 3 6 3 2 2 4 5 7 10 12 13 13 12 13 17 15 13 10 13 16 18 16 15 16 16
21 16 13 9 23 31 18 4 3 2 4 6 2 2 2 2 5 11 8 5 4 3 4 4 6 6 6 5 5 14 13 15 12 13 8 14 15 12 13 15 17 16 16 16
21 20 18 13 14 28 6 3 1 3 2 4 3 3 1 2 2 8 8 9 3 1 3 4 4 0 2 3 16 21 16 15 16 18 16 18 17 18 21 20 18 19 22 22
7 21 20 19 28 11 3 4 4 18 4 3 3 2 2 2 3 2 2 2 2 2 2 4 1 2 3 1 19 16 13 11 14 14 14 20 21 18 19 20 21 19 21 21
6 15 22 25 24 13 5 1 17 13 6 3 4 2 3 9 4 4 1 3 2 0 1 2 2 1 3 7 27 16 18 19 24 23 23 23 23 23 23 22 21 23 20 18
16 13 14 7 3 3 3 16 18 3 4 7 4 8 6 7 3 3 3 3 3 2 5 5 6 4 9 17 24 25 26 26 31 22 22 22 22 22 21 21 20 21 18 17
16 6 5 3 3 23 14 6 3 3 1 1 4 4 5 7 5 3 4 2 3 4 5 3 5 5 20 22 22 23 21 18 18 21 22 20 21 18 20 19 17 16 15 14
4 4 3 2 3 3 4 4 4 3 4 4 6 9 7 2 5 5 3 4 4 4 5 7 4 7 19 23 23 23 23 21 21 22 22 21 21 18 16 16 16 15 16 15
8 9 5 2 3 2 5 3 3 3 6 6 6 6 5 5 2 4 4 4 4 5 6 4 5 12 17 13 12 10 13 16 17 18 18 18 16 13 13 13 13 14 13 13
4 5 4 3 2 4 6 8 3 4 7 7 5 6 4 3 2 4 4 6 6 6 5 5 9 7 3 2 3 3 7 6 6 7 7 8 9 9 9 10 11 12 12 12
3 4 5 2 4 4 5 5 4 4 3 8 7 5 3 3 3 4 6 3 4 5 6 9 7 8 3 4 7 6 5 2 4 5 4 5 6 7 8 9 9 10 11 11
2 2 4 5 3 3 5 5 6 4 8 8 5 3 2 2 4 3 4 6 5 7 7 6 3 2 2 3 3 3 2 1 1 2 4 6 8 9 11 11 10 10 10 12
3 2 4 2 5 5 5 6 5 7 8 6 4 3 2 3 2 3 6 5 8 5 4 2 3 4 4 4 3 3 3 1 3 4 4 6 8 9 11 12 12 12 11 11
5 3 4 8 4 6 5 7 6 7 7 4 5 8 5 4 4 4 5 7 2 3 4 1 3 3 3 3 3 3 3 2 3 4 6 7 8 9 10 13 13 12 12 12
Wind_Direction
191 189 192 190 179 164 191 197 206 146 183 192 207 221 216 35 183 195 213 265 245 196 186 197 203 203 109 150 154 173 155 303 211 67 114 325 306 304 273 292 168 266 280 276
186 188 189 188 176 188 176 191 122 169 204 207 205 194 215 248 194 197 188 203 216 186 185 198 201 186 70 158 176 167 175 201 201 180 180 185 236 204 237 266 294 244 277 255
185 186 186 186 185 205 247 157 164 155 212 248 233 207 215 211 219 230 209 194 176 178 198 182 178 170 139 180 188 4 183 224 259 288 13 104 194 207 218 219 225 250 235 281
185 183 187 184 188 186 227 230 199 177 186 212 214 212 209 206 183 223 208 199 217 194 197 186 201 162 139 169 167 195 224 243 239 260 271 253 263 255 208 221 235 251 275 281
185 184 184 183 176 153 237 219 180 192 197 200 202 205 214 212 203 177 199 226 201 210 220 201 198 183 179 179 175 193 197 240 228 259 234 258 276 265 252 240 234 255 265 276
185 185 184 181 169 175 195 215 282 255 166 189 191 207 214 207 206 203 220 204 203 211 221 217 3 170 231 136 168 188 182 212 218 265 122 256 263 262 236 225 237 234 242 253
186 184 185 181 177 194 225 167 218 235 187 200 198 202 208 209 204 198 204 217 202 132 110 105 112 108 116 189 196 194 193 200 175 270 166 243 272 218 249 242 247 225 252 264
186 185 187 185 184 192 220 172 219 228 205 202 214 202 216 211 208 234 187 196 195 150 153 143 165 176 194 212 199 199 218 180 188 226 219 288 305 242 179 190 270 216 235 253
187 186 186 188 188 190 214 211 226 261 250 217 198 201 196 185 193 180 160 102 194 173 174 180 201 193 195 166 182 228 213 262 215 187 232 239 83 127 158 159 267 247 225 219
190 189 188 189 189 189 194 214 202 251 229 213 203 188 193 197 181 188 160 155 160 223 189 189 205 218 185 182 192 169 177 201 215 227 245 254 239 157 167 212 268 165 185 199
202 193 192 190 190 188 190 205 195 216 227 177 220 219 183 183 196 160 137 138 195 179 198 198 198 231 194 237 188 174 172 165 189 208 224 253 189 138 209 218 174 204 208 224
215 220 204 192 189 185 186 213 185 221 254 19 17 278 308 312 274 244 177 212 157 176 191 204 211 198 200 202 226 188 223 209 184 203 208 31 169 205 216 279 265 233 236 227
211 215 235 199 186 182 184 201 158 180 215 260 231 212 218 216 240 347 179 221 220 188 261 189 236 232 178 213 228 231 215 240 235 248 219 236 210 238 252 251 250 255 248 262
190 157 173 199 187 180 181 188 175 175 135 220 218 302 190 180 209 217 326 42 75 42 150 186 191 219 200 237 256 228 229 191 216 248 256 280 253 242 254 259 259 258 262 260
174 153 137 138 199 182 165 112 189 75 165 176 168 89 219 250 214 209 202 209 183 167 167 204 219 245 251 226 282 247 228 221 223 239 224 237 260 265 243 249 252 260 264 273
169 159 151 130 133 137 126 110 193 159 69 115 156 342 32 57 202 211 206 206 161 117 161 219 244 3 103 249 246 242 242 246 246 263 269 279 291 283 285 280 277 284 288 286
239 166 156 141 145 147 146 170 151 160 126 100 84 282 81 113 95 67 87 79 114 143 204 236 239 89 106 229 256 234 260 259 269 280 286 266 259 263 267 268 272 276 276 275
103 169 167 154 156 102 126 185 139 133 90 86 145 204 242 178 144 128 136 112 109 142 204 7 243 66 133 242 250 266 266 275 271 264 263 272 284 282 275 275 278 271 267 274
133 101 92 135 62 143 152 142 138 58 121 165 164 156 186 168 123 115 132 148 148 136 200 196 167 167 221 229 245 248 249 244 254 269 271 271 271 274 276 276 275 274 275 275
113 52 61 70 18 117 97 31 68 36 68 103 174 179 155 164 158 135 125 159 183 187 211 178 213 243 247 240 240 249 249 252 259 260 262 264 265 267 271 272 271 271 276 280
45 73 81 238 342 63 51 126 166 145 171 182 185 189 131 231 155 133 193 163 163 206 182 196 201 249 242 237 237 246 257 258 260 263 266 267 271 277 280 282 281 279 278 275
134 108 100 82 63 93 121 157 145 201 197 175 165 156 113 146 166 124 162 160 153 219 134 197 238 245 257 269 255 250 244 247 251 255 262 268 271 276 278 280 284 284 287 288
68 72 109 150 139 129 179 170 178 202 173 162 156 121 114 135 205 103 153 180 195 121 178 218 241 281 8 36 72 233 240 240 273 286 294 298 299 300 292 291 290 293 289 284
74 156 139 211 159 204 195 180 144 73 109 144 147 112 136 133 150 136 169 165 136 200 211 229 236 242 274 219 228 235 244 317 302 299 303 293 289 292 292 284 286 289 287 291
148 136 162 187 180 93 171 104 122 139 155 134 107 78 106 140 148 197 130 163 211 215 226 216 83 52 200 216 192 213 166 170 289 308 299 298 301 302 302 304 303 300 297 293
98 175 160 239 163 156 180 168 132 151 145 108 91 117 150 181 175 174 210 183 219 229 220 230 184 181 163 145 133 107 88 318 309 313 309 304 302 308 309 309 303 297 291 287
173 209 237 200 247 182 176 163 150 157 153 150 151 167 178 105 178 217 202 214 269 150 208 186 166 173 159 147 156 176 184 242 299 320 317 314 311 307 304 300 303 305 300 294